Regional Weather Roundup
Issued by NWS

Home | Current Version | Previous Version | Text Only | Print | Product List | Glossary On
Versions: 1 2 3 4 5 6 7 8 9 10 11 12 13 14 15 16 17 18 19 20 21 22 23 24 25 26 27 28 29 30 31 32 33 34 35 36 37 38 39 40 41 42 43 44 45 46 47 48 49 50
000
ASUS43 KLSX 280610
RWRMO

WEATHER SUMMARY FOR MISSOURI
NATIONAL WEATHER SERVICE SPRINGFIELD MO
100 AM CDT FRI AUG 28 2015

NOTE: "FAIR" INDICATES FEW OR NO CLOUDS BELOW 12,000 FEET WITH NO
       SIGNIFICANT WEATHER AND/OR OBSTRUCTIONS TO VISIBILITY.
       CURRENT SKY AND/OR WEATHER CONDITIONS ARE NOT AVAILABLE FOR
       CHILLICOTHE AND FARMINGTON.

MOZ001>031-035>038-043-044-053-054-280700-
...NORTHERN AND WESTERN MISSOURI...

CITY           SKY/WX    TMP DP  RH WIND       PRES   REMARKS
KANSAS CTY INT CLOUDY    71  65  81 SE12      29.98F
6HR MIN TEMP:  70; 6HR MAX TEMP:  73;

KANSAS C DTWN  FAIR      72  66  81 S8        29.98F
6HR MIN TEMP:  71; 6HR MAX TEMP:  74;

LEE`S SUMMIT   FAIR      69  64  84 S6        30.01R
6HR MIN TEMP:  69; 6HR MAX TEMP:  72;

ST JOSEPH      FAIR      71  66  84 S15       29.96F
6HR MIN TEMP:  70; 6HR MAX TEMP:  75;

CHILLICOTHE      N/A     67  62  84 SE5       30.04R
6HR MIN TEMP:  67; 6HR MAX TEMP:  75;

KIRKSVILLE     FAIR      61  57  87 E7        30.07F
6HR MIN TEMP:  60; 6HR MAX TEMP:  72;


$$
MOZ066>068-077>081-088>096-101>105-280700-
...SOUTHWEST MISSOURI...

CITY           SKY/WX    TMP DP  RH WIND       PRES   REMARKS
SPRINGFIELD    FAIR      67  59  75 S10       30.04F
6HR MIN TEMP:  67; 6HR MAX TEMP:  75;

JOPLIN         FAIR      69  63  81 S10       30.01F
6HR MIN TEMP:  68; 6HR MAX TEMP:  77;


$$
MOZ032>034-039>042-045>050-055>058-069>072-280700-
...CENTRAL MISSOURI...

CITY           SKY/WX    TMP DP  RH WIND       PRES   REMARKS
COLUMBIA       FAIR      63  60  90 SE7       30.06S
6HR MIN TEMP:  63; 6HR MAX TEMP:  72;

JEFFERSON CITY FAIR      65  60  84 E6        30.06S
6HR MIN TEMP:  64; 6HR MAX TEMP:  74;

ROLLA          FAIR      63  59  87 SE9       30.07S
6HR MIN TEMP:  62; 6HR MAX TEMP:  73;

SEDALIA        FAIR      65  60  84 SE7       30.04F
6HR MIN TEMP:  64; 6HR MAX TEMP:  75;

WHITEMAN AFB   CLEAR     67  63  87 S9        30.01S
WARRENSBURG    FAIR      66  63  88 SE7       30.01F
OSAGE BEACH    FAIR      63  57  82 SE3       30.06S

$$
MOZ051-052-059>065-280700-
...EAST CENTRAL MISSOURI...

CITY           SKY/WX    TMP DP  RH WIND       PRES   REMARKS
ST LOUIS INTL  FAIR      65  57  75 E3        30.10S
6HR MIN TEMP:  65; 6HR MAX TEMP:  76;

SPIRIT OF STL  FAIR      60  59  96 CALM      30.08S
6HR MIN TEMP:  60; 6HR MAX TEMP:  74;

ST CHARLES     FAIR      62  60  93 E5        30.08S
6HR MIN TEMP:  62; 6HR MAX TEMP:  74;


$$
MOZ072>076-082>087-097>100-106>115-280700-
...SOUTH CENTRAL AND SOUTHEAST MISSOURI...

CITY           SKY/WX    TMP DP  RH WIND       PRES   REMARKS
CAPE GIRARDEAU FAIR      59  58  96 CALM      30.08F
6HR MIN TEMP:  58; 6HR MAX TEMP:  75;

FARMINGTON     FAIR      57  57 100 CALM      30.12F
6HR MIN TEMP:  57; 6HR MAX TEMP:  72;

POPLAR BLUFF   FAIR      59  58  96 CALM      30.08R
6HR MIN TEMP:  59; 6HR MAX TEMP:  74;

WEST PLAINS    FAIR      62  57  83 S3        30.11F
6HR MIN TEMP:  62; 6HR MAX TEMP:  72;


$$



USA.gov is the U.S. government's official web portal to all federal, state and local government web resources and services.